Find Starlink 35883

NORAD ID: 66892 Int'l Des: 2025-283 Owner: SPXS Country: US Constellation: starlink operational
LEOCIRCULAR

リアルタイム位置

3D地球を読み込み中...

Starlink 35883について

説明を読み込み中...

次回通過

Passes for default location (London). Set your location on the main map for personalized predictions.

高度履歴

Loading altitude history...

軌道要素

1 66892U 25283Q 26106.56153343 .00010779 00000-0 37560-3 0 9994
2 66892 53.1597 208.1740 0001144 89.3016 270.8116 15.30193526 21645
Epoch: Apr 16, 2026 • Age: 26 hours

現在のステータス

高度 494.4 km
速度 7.62 km/s
衛星直下点 -53.07°S, 38.62°E
打ち上げ日 Dec 4, 2025
運用期間 0.3 years
タイプ internet

技術仕様

分類 Payload
質量 575.00 kg
乾燥質量 530.00 kg
総質量 575.00 kg
長さ 0.30 m
直径 4.10 m
スパン 29.00 m
形状 Box + pan
製造者 SPXS
バスタイプ Starlink V2MO
フェーズステータス In Orbit
所有者/国 SPXS/US

Most Searched